[[{"header":{"parameterUnit":"m.s-1","parameterCategory":1,"la1":30.2991,"la2":30.254,"lo1":-89.0895,"lo2":-89.0444,"dy":0.0017,"dx":0.0017,"nx":28,"ny":28,"refTime":"2025-07-13T21:00:00:Z","depth":0,"parameterNumber":2,"parameterNumberName":"U-component_of_WINDS"},"data":[0,0,0,0,0,0,0,0,0,0,0,0,0,0,0,0,0,0,0,0,0,0,0,0,0,0,0,0,0,0,0,0,0,0,0,0,0,0,0,0,0,0,0,0,0,0,0,0,0,0,0,0,0,0,0,0,0,0,2.6661,2.6662,0,2.6708,2.6708,2.6709,2.6658,2.6656,2.6654,2.6652,2.67,2.6703,2.6706,0,0,0,0,0,0,0,0,0,0,0,0,0,2.6529,2.6532,2.6661,2.6662,2.6662,2.6708,2.6708,2.6709,2.6658,2.6656,2.6653,2.6651,2.6699,2.6702,2.6706,0,0,0,0,0,0,0,0,0,0,0,0,0,2.6582,2.6533,2.6661,2.6642,2.6641,2.6707,2.6708,2.6709,2.6659,2.6656,2.6653,2.665,2.6697,2.6702,2.6707,2.6794,0,0,2.6721,2.6723,0,0,0,0,0,0,0,0,2.6579,2.6587,2.6645,2.6644,2.6643,2.6674,2.6679,2.6737,2.6659,2.6652,2.6652,2.6649,2.6693,2.6698,2.6713,2.6796,2.6798,2.6721,2.6724,2.6726,2.6727,0,0,0,0,0,0,0,2.6576,2.6585,2.6679,2.6645,2.6644,2.6632,2.6636,2.669,2.6689,2.6652,2.6649,2.6655,2.6692,2.6709,2.6714,2.6798,2.6721,2.6725,2.6728,2.673,2.6956,2.6959,0,0,0,0,0,0,2.6574,2.6582,2.6678,2.6681,2.6603,2.6637,2.6642,2.6667,2.6688,2.6688,2.6657,2.6652,2.6703,2.6709,2.6716,2.682,2.6726,2.673,2.6733,2.6953,2.6957,2.696,0,0,0,0,0,0,2.6571,2.6583,2.6676,2.6631,2.6642,2.6642,2.6671,2.6669,2.6686,2.6692,2.6691,2.6675,2.6701,2.6709,2.6775,2.6821,2.6732,2.6736,2.6949,2.6954,2.6959,2.7029,0,0,0,0,0,0,2.6568,2.6582,2.6615,2.6632,2.6644,2.6735,2.6674,2.6672,2.6694,2.6688,2.6708,2.6708,2.6699,2.6768,2.678,2.6826,2.674,2.6945,2.6951,2.6957,2.7022,2.7035,2.7047,0,0,0,0,0,2.6563,2.6633,2.6617,2.6629,2.6685,2.6737,2.6744,2.6732,2.6698,2.6731,2.6735,2.6708,2.6814,2.6775,2.6788,2.6836,2.6942,2.695,2.6957,2.7017,2.7033,2.7046,0,0,0,0,0,0,2.6621,2.6634,2.6617,2.6694,2.6715,2.6729,2.677,2.6749,2.678,2.6773,2.6757,2.6762,2.6832,2.684,2.6797,2.6922,2.6872,2.6883,2.6914,2.6929,2.6941,2.6938,2.6744,0,0,0,0,0,2.6643,2.6684,2.6693,2.676,2.6772,2.6769,2.6792,2.6781,2.6802,2.681,2.6819,2.684,2.6879,2.6904,2.694,2.7023,2.7028,2.7063,2.7075,2.7085,2.7094,2.714,2.7156,2.6984,2.6984,2.6984,0,0,2.6688,2.6701,2.6727,2.6772,2.6787,2.6831,2.6777,2.6825,2.6857,2.6817,2.688,2.6888,2.6911,2.6986,2.702,2.6995,2.7142,2.7094,2.7102,2.7106,2.7149,2.7165,2.718,2.6989,2.6989,2.6988,0,0,2.6793,2.6806,2.6864,2.688,2.6904,2.6902,2.6916,2.6933,2.6937,2.7,2.6971,2.7009,2.7075,2.7093,2.7111,2.7225,2.7201,2.7237,2.73,2.7346,2.7359,2.7371,2.7413,2.7428,2.7246,2.7246,2.7246,0,2.6846,2.6911,2.6896,2.6947,2.6968,2.6934,2.6993,2.701,2.7044,2.7059,2.7031,2.7115,2.7128,2.7208,2.7236,2.7251,2.7267,2.7235,2.7358,2.737,2.7381,2.7421,2.7436,2.725,2.725,2.7249,2.7249,0,2.6976,2.7021,2.7065,2.7099,2.7125,2.7179,2.7174,2.7202,2.7189,2.7191,2.7256,2.7271,2.7309,2.7327,2.7315,2.7406,2.739,2.7361,2.7311,2.7402,2.7439,2.7454,2.7256,2.7255,2.7254,2.7252,0,0,2.7118,2.7144,2.7161,2.7177,2.7201,2.7235,2.7289,2.7327,2.7352,2.7377,2.7422,2.7479,2.7453,2.7473,2.7462,2.7502,2.7593,2.7468,2.7468,2.7491,2.7696,2.7719,2.7736,2.7577,2.758,2.7582,2.7694,0,2.7224,2.7317,2.7306,2.7395,2.7437,2.7406,2.7453,2.7473,2.7476,2.7513,2.7516,2.7558,2.7518,2.7531,2.7569,2.7574,2.7634,2.7565,2.762,2.7622,2.7616,2.7755,2.7779,2.7884,2.7708,2.7711,2.7713,0,2.736,2.7391,2.7484,2.7503,2.752,2.7562,2.7597,2.7632,2.7655,2.7654,2.7678,2.7661,2.7715,2.7664,2.774,2.7694,2.7715,2.7721,2.7725,2.773,2.7673,2.7765,2.7917,2.7933,2.7735,2.7733,2.7732,0,2.7456,2.752,2.7585,2.7599,2.7622,2.7653,2.7664,2.7684,2.7708,2.7739,2.7754,2.7791,2.7811,2.784,2.7833,2.7796,2.7911,2.7859,2.7913,2.7913,2.7939,2.7937,2.8097,2.7952,2.7951,2.7951,2.7951,0,2.7577,2.7635,2.7628,2.7668,2.7733,2.7721,2.7786,2.7793,2.7811,2.7852,2.7827,2.7867,2.7855,2.7894,2.789,2.7954,2.7963,2.7964,2.7963,2.7967,2.7967,2.7982,2.7974,2.7955,2.7954,2.7953,2.7953,0,2.7695,2.7693,2.7761,2.7778,2.7783,2.7831,2.7845,2.7883,2.7884,2.7937,2.7949,2.7951,2.7996,2.7992,2.8042,2.8039,2.8119,2.8108,2.8111,2.8109,2.8164,2.8159,2.8339,2.8363,2.8201,2.8203,2.8204,0,2.7772,2.7816,2.7838,2.7864,2.7878,2.792,2.7944,2.7934,2.7961,2.7991,2.8025,2.8068,2.8101,2.8175,2.8181,2.822,2.821,2.8271,2.8216,2.8219,2.8212,2.821,2.8215,2.8282,2.8283,2.8285,2.8286,0,2.791,2.7907,2.7943,2.798,2.801,2.8039,2.8065,2.8087,2.808,2.8111,2.8157,2.8183,2.8235,2.8278,2.8315,2.8326,2.8306,2.8303,2.8318,2.8324,2.8324,2.8326,2.8142,2.8299,2.8298,2.8297,2.8296,2.8296,2.8011,2.8049,2.8071,2.8113,2.8132,2.8157,2.8193,2.82,2.8238,2.8279,2.8271,2.8322,2.8345,2.8393,2.8408,2.8449,2.8427,2.8448,2.8454,2.846,2.8467,2.8317,2.8456,2.8455,2.8455,2.8455,2.8454,0,2.8148,2.8161,2.82,2.8237,2.827,2.8248,2.8275,2.8305,2.8351,2.8374,2.8407,2.8461,2.8503,2.8513,2.8553,2.8584,2.8576,2.8595,2.8593,2.8597,2.8483,2.8467,2.8601,2.8601,2.8601,2.8601,2.8601,2.8601,2.8224,2.8288,2.8288,2.8362,2.8374,2.8425,2.8443,2.8466,2.8485,2.8545,2.858,2.8587,2.8605,2.8647,2.8685,2.8686,2.8703,2.8727,2.8725,2.8619,2.8604,2.859,2.8575,2.873,2.873,2.8835,2.8836,2.8837]},{"header":{"parameterUnit":"m.s-1","parameterCategory":1,"la1":30.2991,"la2":30.254,"lo1":-89.0895,"lo2":-89.0444,"dy":0.0017,"dx":0.0017,"nx":28,"ny":28,"refTime":"2025-07-13T21:00:00:Z","depth":0,"parameterNumber":3,"parameterNumberName":"V-component_of_WINDS"},"data":[0,0,0,0,0,0,0,0,0,0,0,0,0,0,0,0,0,0,0,0,0,0,0,0,0,0,0,0,0,0,0,0,0,0,0,0,0,0,0,0,0,0,0,0,0,0,0,0,0,0,0,0,0,0,0,0,0,0,-2.8778,-2.878,0,-2.8899,-2.89,-2.8902,-2.8895,-2.8893,-2.8891,-2.889,-2.9014,-2.9019,-2.9023,0,0,0,0,0,0,0,0,0,0,0,0,0,-2.8543,-2.8547,-2.8778,-2.878,-2.8781,-2.8899,-2.89,-2.8902,-2.8895,-2.8893,-2.8891,-2.8889,-2.9012,-2.9018,-2.9024,0,0,0,0,0,0,0,0,0,0,0,0,0,-2.8653,-2.8549,-2.8778,-2.8792,-2.8794,-2.8898,-2.89,-2.8903,-2.8896,-2.8893,-2.889,-2.8888,-2.901,-2.9017,-2.9025,-2.9123,0,0,-2.9047,-2.9051,0,0,0,0,0,0,0,0,-2.8646,-2.8661,-2.8788,-2.8791,-2.8794,-2.8879,-2.8863,-2.8976,-2.8896,-2.8857,-2.889,-2.8887,-2.8971,-2.8982,-2.901,-2.9129,-2.9134,-2.9048,-2.9052,-2.9056,-2.9058,0,0,0,0,0,0,0,-2.8639,-2.8656,-2.8826,-2.879,-2.8794,-2.8793,-2.8805,-2.8884,-2.8927,-2.886,-2.886,-2.8875,-2.8972,-2.9003,-2.9013,-2.9136,-2.9048,-2.9054,-2.9059,-2.9062,-2.9342,-2.9345,0,0,0,0,0,0,-2.8628,-2.865,-2.8822,-2.883,-2.8712,-2.8799,-2.8813,-2.8855,-2.8927,-2.8935,-2.8877,-2.8874,-2.8992,-2.9004,-2.9017,-2.9138,-2.9056,-2.9063,-2.9067,-2.9339,-2.9343,-2.9346,0,0,0,0,0,0,-2.8623,-2.8644,-2.8817,-2.874,-2.8762,-2.8806,-2.8852,-2.8858,-2.8889,-2.8939,-2.8946,-2.89,-2.899,-2.9007,-2.9097,-2.9142,-2.9066,-2.9073,-2.9335,-2.934,-2.9344,-2.9379,0,0,0,0,0,0,-2.8616,-2.8642,-2.8679,-2.8741,-2.8766,-2.8895,-2.8855,-2.8863,-2.8902,-2.8899,-2.8963,-2.8971,-2.8989,-2.9086,-2.9104,-2.9151,-2.9078,-2.9332,-2.9338,-2.9343,-2.9374,-2.9384,-2.9392,0,0,0,0,0,-2.8608,-2.8684,-2.8681,-2.8702,-2.8814,-2.8897,-2.8912,-2.8931,-2.8905,-2.8944,-2.8976,-2.8969,-2.9134,-2.9095,-2.9116,-2.9165,-2.9329,-2.9336,-2.9342,-2.9369,-2.9382,-2.9392,0,0,0,0,0,0,-2.8627,-2.8692,-2.869,-2.8788,-2.8837,-2.8896,-2.8945,-2.8943,-2.9001,-2.8996,-2.9018,-2.9033,-2.9123,-2.9153,-2.9109,-2.9264,-2.9228,-2.9239,-2.9241,-2.9254,-2.9263,-2.9254,-2.9084,0,0,0,0,0,-2.8642,-2.8705,-2.8758,-2.884,-2.8865,-2.8901,-2.8938,-2.8948,-2.9,-2.9021,-2.906,-2.9111,-2.9174,-2.9215,-2.9276,-2.9378,-2.9392,-2.9422,-2.9431,-2.9439,-2.9448,-2.9505,-2.9519,-2.9368,-2.9368,-2.9368,0,0,-2.8675,-2.8719,-2.8757,-2.8845,-2.8884,-2.8949,-2.8918,-2.8987,-2.9036,-2.9032,-2.9119,-2.915,-2.9208,-2.9304,-2.9348,-2.9332,-2.9493,-2.9447,-2.9453,-2.9459,-2.9513,-2.9528,-2.954,-2.9373,-2.9372,-2.9371,0,0,-2.8768,-2.8807,-2.8879,-2.8919,-2.8979,-2.9003,-2.902,-2.908,-2.91,-2.9188,-2.9187,-2.9244,-2.9353,-2.9395,-2.943,-2.9539,-2.9536,-2.9559,-2.9608,-2.9663,-2.9675,-2.9685,-2.9725,-2.9739,-2.9568,-2.9568,-2.9568,0,-2.8801,-2.8898,-2.8917,-2.8987,-2.9026,-2.9025,-2.9099,-2.9137,-2.9214,-2.9242,-2.9222,-2.9358,-2.9397,-2.9504,-2.9531,-2.9559,-2.958,-2.9552,-2.9671,-2.9682,-2.9692,-2.9731,-2.9746,-2.957,-2.957,-2.957,-2.957,0,-2.8937,-2.9004,-2.9055,-2.9129,-2.9174,-2.9246,-2.9276,-2.9319,-2.9326,-2.9352,-2.9442,-2.9489,-2.956,-2.9586,-2.9593,-2.9694,-2.9682,-2.9666,-2.9631,-2.9709,-2.9745,-2.976,-2.9574,-2.9573,-2.9572,-2.9572,0,0,-2.9045,-2.9129,-2.9148,-2.9182,-2.9248,-2.93,-2.9372,-2.9441,-2.9479,-2.9532,-2.9593,-2.9685,-2.9671,-2.9712,-2.9724,-2.9772,-2.9857,-2.9751,-2.9753,-2.977,-2.9972,-2.9984,-3.0,-2.9854,-2.9857,-2.986,-2.9967,0,-2.9145,-2.9272,-2.9292,-2.9404,-2.9467,-2.9467,-2.953,-2.9577,-2.9604,-2.9661,-2.969,-2.9755,-2.9731,-2.9756,-2.9804,-2.9836,-2.9898,-2.9829,-2.9912,-2.9915,-2.9899,-3.0019,-3.0032,-3.0131,-2.9982,-2.9984,-2.9986,0,-2.9279,-2.9336,-2.9455,-2.9513,-2.954,-2.9596,-2.9661,-2.9716,-2.977,-2.9786,-2.9831,-2.9838,-2.9913,-2.9873,-2.9978,-2.993,-2.9966,-2.9987,-2.9991,-3.0001,-2.9956,-3.0032,-3.0163,-3.0178,-3.0008,-3.0006,-3.0005,0,-2.9348,-2.9454,-2.9539,-2.9567,-2.9637,-2.9677,-2.9708,-2.976,-2.98,-2.9858,-2.9884,-2.995,-2.9986,-3.0036,-3.006,-3.0029,-3.0164,-3.0126,-3.0179,-3.0179,-3.0208,-3.0206,-3.0347,-3.023,-3.0229,-3.0229,-3.0229,0,-2.9458,-2.9531,-2.957,-2.9622,-2.9704,-2.9726,-2.9806,-2.9836,-2.9882,-2.9941,-2.9945,-3.0,-3.0028,-3.0087,-3.0107,-3.0191,-3.0207,-3.0222,-3.0226,-3.0222,-3.022,-3.0246,-3.024,-3.0233,-3.0232,-3.0231,-3.0231,0,-2.9549,-2.9578,-2.967,-2.9729,-2.9745,-2.9803,-2.9854,-2.9905,-2.993,-3.0004,-3.0023,-3.0064,-3.0134,-3.0163,-3.0249,-3.0262,-3.0359,-3.0357,-3.034,-3.0342,-3.0394,-3.0389,-3.0558,-3.0581,-3.0447,-3.0448,-3.0449,0,-2.9618,-2.9674,-2.9738,-2.9778,-2.981,-2.9873,-2.9915,-2.9938,-2.9981,-3.0048,-3.0091,-3.0161,-3.0219,-3.0331,-3.0368,-3.0434,-3.0435,-3.049,-3.0445,-3.044,-3.0437,-3.0434,-3.044,-3.0498,-3.05,-3.0501,-3.0502,0,-2.9737,-2.9749,-2.9808,-2.9874,-2.9923,-2.9975,-3.0026,-3.0058,-3.009,-3.0138,-3.021,-3.0254,-3.0342,-3.0412,-3.0481,-3.0513,-3.0513,-3.0515,-3.0531,-3.0528,-3.0516,-3.0524,-3.0364,-3.0511,-3.051,-3.051,-3.0509,-3.0509,-2.982,-2.987,-2.9923,-2.999,-3.0031,-3.0078,-3.0129,-3.0161,-3.0222,-3.0295,-3.0305,-3.0382,-3.0436,-3.0528,-3.0563,-3.0624,-3.061,-3.0633,-3.0639,-3.0645,-3.0649,-3.0506,-3.0636,-3.0636,-3.0636,-3.0636,-3.0636,0,-2.9941,-2.9975,-3.0036,-3.0107,-3.016,-3.0154,-3.0211,-3.0255,-3.0323,-3.0373,-3.0429,-3.0512,-3.058,-3.0623,-3.0692,-3.0732,-3.0734,-3.075,-3.0747,-3.0755,-3.0657,-3.0636,-3.0747,-3.0747,-3.0747,-3.0747,-3.0747,-3.0747,-3.001,-3.0095,-3.0113,-3.0218,-3.0252,-3.0327,-3.036,-3.0404,-3.0444,-3.0537,-3.0593,-3.062,-3.0668,-3.074,-3.0803,-3.0814,-3.0839,-3.0856,-3.0866,-3.0774,-3.0762,-3.0751,-3.0732,-3.0861,-3.0861,-3.096,-3.096,-3.0961]}]]